ORBCOMM FM118 (41183 NORAD) Tracking and Keplerian Element Data

This shows tracking and keplerian element data for the satellite.

Feedback or suggestion? Click here.




ElementValue
Catalog41183
NameORBCOMM FM118
Epoch Orbit48507
Epoch Day34.88530857
Epoch Year2025
RAAN196.0887
Inclination47.0021
Eccentricity0.0003222
Argument of Perigee242.7093
Mean Anonmoly117.3464
Mean Motion14.57715357
Decay Rate2.039E-05
L11 41183U 15081E 25034.88530857 .00002039 00000+0 47889-3 0 9992
L22 41183 47.0021 196.0887 0003222 242.7093 117.3464 14.57715357485073



Live tracking and technical data element details for ORBCOMM FM118 (NORAD 41183). ORBCOMM FM118 can be tracked NOW for your location showing map with azimuth and elevation plus other details from your city location.







IsCatalogInMostPopularTable: catalog: 41183, numindb: 644
Update: records affected: 1



GetName: 41183 ORBCOMM FM118

Hit Count: updated at: Sat, 17 May 2025 09:44:10 GMT